FW0821 Weather Reports


time (UTC)temp
C
wind
direction
speed
KPH
gust
KPH
rain 1hr
cm
rain 24hr
cm
rain mn
cm
humidity
%
barometer
mb
20260505140220 12 158 9.7 12.9 0.00 0.00 0.00 83 1016.2
20260505130218 12 180 4.8 8.0 0.00 0.00 0.00 85 1015.5
20260505124228 12 180 8.0 14.5 0.00 0.00 0.00 85 1015.3
20260505123226 12 203 8.0 11.3 0.00 0.00 0.00 85 1015.3
20260505122226 12 203 6.4 14.5 0.00 0.00 0.00 85 1015.2
20260505121228 12 180 9.7 16.1 0.00 0.00 0.00 85 1015.0
20260505120220 12 158 6.4 14.5 0.00 0.00 0.00 85 1015.0
20260505115218 12 203 6.4 9.7 0.00 0.00 0.00 86 1014.9
20260505114220 12 158 3.2 6.4 0.00 0.00 0.00 86 1014.8
20260505113220 11 180 4.8 8.0 0.00 0.00 0.00 86 1014.8
20260505112220 12 203 6.4 12.9 0.00 0.00 0.00 86 1014.8
20260505111220 12 203 8.0 12.9 0.00 0.00 0.00 86 1014.8
20260505110220 11 203 6.4 11.3 0.00 0.00 0.00 86 1014.8
20260505102220 11 135 4.8 12.9 0.00 0.00 0.00 86 1014.4
20260505101218 11 158 4.8 8.0 0.00 0.00 0.00 86 1014.5
20260505100240 11 203 6.4 22.5 0.00 0.00 0.00 86 1014.5
20260505095220 11 180 9.7 20.9 0.00 0.00 0.00 86 1014.5
20260505094220 11 158 8.0 14.5 0.00 0.00 0.00 86 1014.3
20260505093226 11 203 11.3 16.1 0.00 0.00 0.00 86 1014.2
20260505092226 12 180 3.2 4.8 0.00 0.00 0.00 86 1014.1
20260505091226 12 158 9.7 19.3 0.00 0.00 0.00 86 1014.0
20260505090248 12 180 6.4 12.9 0.00 0.00 0.00 86 1013.9
20260505085226 12 203 4.8 9.7 0.00 0.00 0.00 86 1013.9
20260505084219 12 180 6.4 12.9 0.00 0.00 0.00 86 1013.8
20260505083240 12 158 8.0 12.9 0.00 0.00 0.00 85 1013.8
20260505082220 12 180 4.8 6.4 0.00 0.00 0.00 85 1013.7
20260505081220 12 203 11.3 16.1 0.00 0.00 0.00 85 1013.8
20260505080220 12 180 4.8 9.7 0.00 0.00 0.00 84 1013.7
20260505075220 12 158 4.8 6.4 0.00 0.00 0.00 84 1013.8
20260505074219 12 135 6.4 14.5 0.00 0.00 0.00 83 1013.7
20260505073220 12 158 4.8 6.4 0.00 0.00 0.00 83 1013.6
20260505072219 13 180 8.0 14.5 0.00 0.00 0.00 83 1013.4
20260505071219 13 180 6.4 9.7 0.00 0.00 0.00 82 1013.3
20260505070220 13 203 8.0 11.3 0.00 0.00 0.00 82 1013.3
20260505065239 13 203 8.0 16.1 0.00 0.00 0.00 81 1013.2
20260505064220 13 180 9.7 16.1 0.00 0.00 0.00 81 1013.3
20260505063219 13 180 6.4 14.5 0.00 0.00 0.00 80 1013.0
20260505062219 14 158 8.0 14.5 0.00 0.00 0.00 79 1012.9
20260505061219 14 180 4.8 8.0 0.00 0.00 0.00 78 1012.7
20260505060219 15 180 9.7 14.5 0.00 0.00 0.00 78 1012.4
20260505055220 15 180 4.8 9.7 0.00 0.00 0.00 77 1012.5
20260505054219 15 158 6.4 11.3 0.00 0.00 0.00 77 1012.4
20260505053239 15 158 4.8 8.0 0.00 0.00 0.00 76 1012.2
20260505052239 15 180 6.4 8.0 0.00 0.00 0.00 76 1012.3
20260505051240 16 180 4.8 8.0 0.00 0.00 0.00 75 1012.1
20260505050219 16 180 4.8 6.4 0.00 0.00 0.00 74 1012.1
20260505041219 17 180 9.7 11.3 0.00 0.00 0.00 70 1011.5
20260505040239 18 203 6.4 11.3 0.00 0.00 0.00 69 1011.4
20260505035240 18 203 6.4 8.0 0.00 0.00 0.00 67 1011.2
20260505034219 19 180 4.8 6.4 0.00 0.00 0.00 66 1011.1
20260505033219 20 180 4.8 6.4 0.00 0.00 0.00 64 1010.8
20260505032219 20 203 6.4 9.7 0.00 0.00 0.00 62 1010.9
20260505031219 21 225 3.2 6.4 0.00 0.00 0.00 59 1010.7
20260505030239 21 315 3.2 6.4 0.00 0.00 0.00 54 1010.7
20260505025220 22 270 3.2 6.4 0.00 0.00 0.00 53 1010.5
20260505024220 22 293 4.8 8.0 0.00 0.00 0.00 53 1010.4
20260505023220 22 293 4.8 8.0 0.00 0.00 0.00 52 1010.3
20260505022219 23 270 6.4 11.3 0.00 0.00 0.00 52 1010.3
20260505021219 23 293 4.8 6.4 0.00 0.00 0.00 51 1010.4
20260505020219 23 270 8.0 11.3 0.00 0.00 0.00 51 1010.4
20260505015219 25 293 4.8 6.4 0.00 0.00 0.00 50 1010.4
20260505014218 25 203 1.6 4.8 0.00 0.00 0.00 49 1010.3
20260505013219 25 180 6.4 9.7 0.00 0.00 0.00 47 1010.2
20260505012218 26 203 4.8 6.4 0.00 0.00 0.00 46 1010.4
20260505011219 26 180 4.8 9.7 0.00 0.00 0.00 45 1010.4
20260505010259 26 180 6.4 9.7 0.00 0.00 0.00 43 1010.4
20260505005219 26 203 6.4 8.0 0.00 0.00 0.00 42 1010.5
20260505004219 26 248 4.8 9.7 0.00 0.00 0.00 41 1010.5
20260505003218 26 248 4.8 6.4 0.00 0.00 0.00 41 1010.5
20260505002219 26 203 3.2 6.4 0.00 0.00 0.00 40 1010.5
20260505001239 27 270 6.4 14.5 0.00 0.00 0.00 40 1010.6
20260505000219 27 158 6.4 11.3 0.00 0.00 0.00 41 1010.6
20260504235219 27 180 9.7 12.9 0.00 0.00 0.00 40 1010.6
20260504234219 27 203 3.2 6.4 0.00 0.00 0.00 41 1010.7
20260504233219 26 180 6.4 9.7 0.00 0.00 0.00 41 1010.7
20260504232219 26 225 8.0 11.3 0.00 0.00 0.00 41 1010.6
20260504231218 26 135 6.4 8.0 0.00 0.00 0.00 40 1010.7
20260504230219 27 180 8.0 11.3 0.00 0.00 0.00 39 1010.8
20260504225220 26 203 8.0 12.9 0.00 0.00 0.00 40 1010.9
20260504224219 26 180 9.7 14.5 0.00 0.00 0.00 41 1011.1
20260504223219 26 225 4.8 8.0 0.00 0.00 0.00 41 1011.2
20260504222219 26 203 4.8 8.0 0.00 0.00 0.00 40 1011.4
20260504221221 26 158 11.3 17.7 0.00 0.00 0.00 38 1011.4
20260504220219 27 135 6.4 11.3 0.00 0.00 0.00 40 1011.5
20260504215239 26 180 3.2 9.7 0.00 0.00 0.00 45 1011.6
20260504214219 26 315 6.4 12.9 0.00 0.00 0.00 46 1011.7
20260504213218 25 180 8.0 14.5 0.00 0.00 0.00 47 1011.6
20260504212219 25 180 6.4 9.7 0.00 0.00 0.00 48 1011.7
20260504211219 25 180 3.2 6.4 0.00 0.00 0.00 49 1011.8
20260504210219 26 225 3.2 6.4 0.00 0.00 0.00 48 1011.9
20260504205238 25 225 4.8 11.3 0.00 0.00 0.00 49 1011.8
20260504204218 25 180 8.0 12.9 0.00 0.00 0.00 47 1011.9
20260504203220 25 180 6.4 11.3 0.00 0.00 0.00 45 1012.0
20260504202220 25 180 3.2 6.4 0.00 0.00 0.00 42 1012.0
20260504201221 25 180 8.0 14.5 0.00 0.00 0.00 42 1012.0
20260504200218 25 158 4.8 8.0 0.00 0.00 0.00 45 1012.1
20260504195220 25 180 8.0 11.3 0.00 0.00 0.00 45 1012.0
20260504194218 25 180 4.8 11.3 0.00 0.00 0.00 43 1012.0
20260504193219 24 225 4.8 11.3 0.00 0.00 0.00 42 1012.0
20260504192239 24 270 4.8 9.7 0.00 0.00 0.00 39 1012.1
20260504191240 25 203 8.0 12.9 0.00 0.00 0.00 39 1012.2
20260504190220 24 180 4.8 11.3 0.00 0.00 0.00 42 1012.3
20260504185218 23 203 4.8 6.4 0.00 0.00 0.00 44 1012.2
20260504184220 24 225 1.6 4.8 0.00 0.00 0.00 44 1012.4
20260504183239 23 203 1.6 3.2 0.00 0.00 0.00 46 1012.3
20260504182219 24 315 1.6 6.4 0.00 0.00 0.00 45 1012.3
20260504181218 23 203 8.0 9.7 0.00 0.00 0.00 45 1012.3
20260504180259 24 338 4.8 8.0 0.00 0.00 0.00 45 1012.2
20260504175221 23 248 9.7 12.9 0.00 0.00 0.00 47 1012.4
20260504174239 22 270 3.2 4.8 0.00 0.00 0.00 48 1012.4
20260504173218 23 0.0 1.6 0.00 0.00 0.00 48 1012.5
20260504172220 22 225 1.6 4.8 0.00 0.00 0.00 48 1012.6
20260504171220 22 203 3.2 4.8 0.00 0.00 0.00 48 1012.5
20260504170220 22 180 1.6 4.8 0.00 0.00 0.00 50 1012.4
20260504160220 18 158 6.4 8.0 0.00 0.00 0.00 59 1012.2
20260504150220 15 180 1.6 3.2 0.00 0.00 0.00 74 1011.6